Regional Weather Roundup
Issued by NWS

Home | Current Version | Previous Version | Graphics & Text | Print | Product List | Glossary On
Versions: 1 2 3 4 5 6 7 8 9 10 11 12 13 14 15 16 17 18 19 20 21 22 23 24 25 26 27 28 29 30 31 32 33 34 35 36 37 38 39 40 41 42 43 44 45 46 47 48 49 50
000
ASUS45 KSLC 240210
RWRUT

UTAH REGIONAL WEATHER ROUNDUP
NATIONAL WEATHER SERVICE SALT LAKE CITY UT
800 PM MDT MON OCT 23 2017

UTZ001>011-023>025-240300-

NORTHERN UTAH

CITY           SKY/WX    TMP DP  RH WIND       PRES   REMARKS
BRIGHAM CITY   PTCLDY    54  30  40 CALM      30.62R
DUGWAY         MOCLDY    55  35  47 N5        30.60R
HILL AFB       CLEAR     51  29  41 NW6       30.62R
LOGAN          PTCLDY    49  29  46 NE5       30.63R
OGDEN          PTCLDY    50  31  48 W3        30.61R
SALT LAKE CITY MOCLDY    57  37  47 NW9       30.60R
TOOELE VALLEY  MOCLDY    48  36  61 CALM      30.62R
WENDOVER       PTCLDY    54  39  57 N3        30.61
HEBER CITY       N/A     46  23  39 E5        30.61R
WEST JORDAN    MOCLDY    54  34  47 NW8       30.61S

$$

UTZ011>015-024>027-240300-

CENTRAL/NORTHEAST UTAH

CITY           SKY/WX    TMP DP  RH WIND       PRES   REMARKS
PROVO AIRPORT  CLOUDY    56  34  43 W5        30.61R
MOAB/CANYONLAN MOCLDY    61  27  27 E3        30.41R
DELTA          PTCLDY    55  30  38 N13       30.58R
PRICE          MOCLDY    57  27  31 NW25G33   30.52R
ROOSEVELT      CLOUDY    54  28  37 W3        30.52R
VERNAL         CLOUDY    58  14  17 N10       30.51R

$$

UTZ013>016-019>022-027-240300-

SOUTHERN UTAH

CITY           SKY/WX    TMP DP  RH WIND       PRES   REMARKS
BRYCE CANYON   CLEAR     51  32  48 N8        30.62R
CEDAR CITY     CLEAR     53  35  50 N9        30.55R
MILFORD        CLEAR     57  36  45 N14       30.56R
ST GEORGE      CLOUDY    76  37  24 NE22G32   30.32R
HANKSVILLE     PTCLDY    64  28  25 NW6       30.44R
BLANDING         N/A     56  22  27 NW9       30.52R

$$

REGIONAL REPORTS     COLORADO/ARIZONA

CITY           SKY/WX    TMP DP  RH WIND       PRES   REMARKS
CRAIG, CO      CLOUDY    41  23  48 W6        30.56R
GRAND JUNCTION CLOUDY    58  27  30 N10       30.45R
RIFLE, CO      CLOUDY    56  24  29 NW6       30.50R
MONTROSE, CO   CLOUDY    58  29  33 MISG      30.50R
CORTEZ, CO     CLOUDY    60  26  27 NW12      30.44R
COLORADO CITY    N/A     64  34  32 NW7       30.44R
PAGE, AZ       CLEAR     65  31  28 N3        30.39R
GRAND CANYON   CLEAR     56  20  24 NE6       30.50R
KINGMAN, AZ    CLEAR     74  31  20 NE9       30.29R
FLAGSTAFF, AZ  CLEAR     59  18  20 E12       30.50R

$$

REGIONAL REPORTS    NEVADA/IDAHO/WYOMING

CITY           SKY/WX    TMP DP  RH WIND       PRES   REMARKS
LAS VEGAS, NV  CLEAR     84  34  16 NE5       30.24R
ELY, NY        CLEAR     56  34  43 N12       30.60R
ELKO, NV       CLEAR     57  33  40 NE6       30.61R
POCATELLO, ID  CLOUDY    43  33  68 S10       30.66R
BURLEY, ID     CLEAR     43  33  68 SW6       30.65R
FORT BRIDGER,    N/A     40  20  45 W12       30.67R WCI  32
EVANSTON, WY   CLOUDY    43  21  41 N5        30.66R
ROCK SPRINGS,  CLOUDY    45  15  30 W12       30.59R
KEMMERER, WY   CLOUDY    37  21  52 W8        30.66R WCI  31

$$



USA.gov is the U.S. government's official web portal to all federal, state and local government web resources and services.